| time (UTC) | temp F | wind direction | speed MPH | gust MPH | rain 1hr in | rain 24hr in | rain mn in | humidity % | barometer mb |
| 20260509235512 | 46 | 80 | 2.0 | 3.0 | 0.00 | 0.17 | 0.17 | 96 | 1038.0 |
| 20260509235009 | 46 | 88 | 4.0 | 5.0 | 0.00 | 0.17 | 0.17 | 96 | 1038.0 |
| 20260509234505 | 46 | 77 | 2.0 | 2.0 | 0.00 | 0.17 | 0.17 | 97 | 1037.8 |
| 20260509234004 | 46 | 34 | 1.0 | 2.0 | 0.00 | 0.17 | 0.17 | 97 | 1037.9 |
| 20260509233500 | 46 | 46 | 1.0 | 2.0 | 0.00 | 0.17 | 0.17 | 97 | 1037.9 |
| 20260509232956 | 46 | 35 | 1.0 | 1.0 | 0.00 | 0.17 | 0.17 | 96 | 1037.9 |
| 20260509232455 | 46 | 4 | 1.0 | 1.0 | 0.00 | 0.17 | 0.17 | 96 | 1038.0 |
| 20260509231950 | 46 | 85 | 3.0 | 5.0 | 0.00 | 0.17 | 0.17 | 96 | 1037.8 |
| 20260509231447 | 46 | 59 | 1.0 | 2.0 | 0.00 | 0.17 | 0.17 | 97 | 1037.8 |
| 20260509230945 | 46 | 102 | 2.0 | 3.0 | 0.00 | 0.17 | 0.17 | 97 | 1037.8 |
| 20260509230441 | 46 | 104 | 3.0 | 3.0 | 0.00 | 0.17 | 0.17 | 96 | 1038.0 |
| 20260509225938 | 46 | 23 | 2.0 | 3.0 | 0.00 | 0.17 | 0.17 | 96 | 1037.9 |
| 20260509225434 | 46 | 94 | 4.0 | 5.0 | 0.00 | 0.17 | 0.17 | 96 | 1038.1 |
| 20260509224930 | 46 | 81 | 3.0 | 3.0 | 0.00 | 0.17 | 0.17 | 96 | 1038.0 |
| 20260509224425 | 46 | 75 | 3.0 | 3.0 | 0.00 | 0.17 | 0.17 | 96 | 1038.0 |
| 20260509223923 | 46 | 20 | 2.0 | 2.0 | 0.00 | 0.17 | 0.17 | 97 | 1038.0 |
| 20260509223419 | 46 | 95 | 2.0 | 2.0 | 0.00 | 0.17 | 0.17 | 97 | 1038.3 |
| 20260509222917 | 46 | 44 | 2.0 | 2.0 | 0.00 | 0.17 | 0.17 | 97 | 1038.1 |
| 20260509222412 | 46 | 33 | 1.0 | 1.0 | 0.00 | 0.17 | 0.17 | 97 | 1038.3 |
| 20260509221908 | 46 | 72 | 2.0 | 2.0 | 0.00 | 0.17 | 0.17 | 97 | 1038.3 |
| 20260509221405 | 46 | 48 | 2.0 | 2.0 | 0.00 | 0.17 | 0.17 | 97 | 1038.3 |
| 20260509220901 | 46 | 85 | 2.0 | 2.0 | 0.00 | 0.17 | 0.17 | 97 | 1038.3 |
| 20260509220357 | 46 | 61 | 1.0 | 1.0 | 0.00 | 0.17 | 0.17 | 97 | 1038.4 |
| 20260509215852 | 46 | 7 | 0.0 | 1.0 | 0.00 | 0.17 | 0.17 | 97 | 1038.3 |
| 20260509215349 | 46 | 38 | 1.0 | 1.0 | 0.00 | 0.17 | 0.17 | 97 | 1038.2 |
| 20260509214846 | 46 | 343 | 1.0 | 2.0 | 0.00 | 0.17 | 0.17 | 97 | 1038.5 |
| 20260509214344 | 46 | 350 | 0.0 | 0.0 | 0.00 | 0.17 | 0.17 | 98 | 1038.5 |
| 20260509213840 | 46 | 329 | 0.0 | 1.0 | 0.00 | 0.17 | 0.17 | 97 | 1038.5 |
| 20260509213336 | 46 | 358 | 0.0 | 0.0 | 0.00 | 0.17 | 0.17 | 97 | 1038.8 |
| 20260509212833 | 46 | 276 | 1.0 | 2.0 | 0.00 | 0.17 | 0.17 | 98 | 1038.5 |
| 20260509212331 | 46 | 79 | 3.0 | 3.0 | 0.00 | 0.17 | 0.17 | 98 | 1038.8 |
| 20260509211827 | 46 | 40 | 1.0 | 1.0 | 0.00 | 0.17 | 0.17 | 98 | 1038.6 |
| 20260509211323 | 46 | 29 | 1.0 | 1.0 | 0.00 | 0.17 | 0.17 | 98 | 1038.7 |
| 20260509210820 | 46 | 40 | 1.0 | 1.0 | 0.00 | 0.17 | 0.17 | 98 | 1038.7 |
| 20260509210317 | 46 | 64 | 2.0 | 2.0 | 0.00 | 0.17 | 0.17 | 98 | 1038.5 |
| 20260509205818 | 46 | 359 | 1.0 | 1.0 | 0.00 | 0.17 | 0.17 | 98 | 1038.6 |
| 20260509205312 | 46 | 30 | 1.0 | 1.0 | 0.00 | 0.17 | 0.17 | 98 | 1038.6 |
| 20260509204808 | 46 | 350 | 1.0 | 1.0 | 0.00 | 0.17 | 0.17 | 98 | 1038.6 |
| 20260509204304 | 46 | 354 | 2.0 | 2.0 | 0.00 | 0.17 | 0.17 | 98 | 1038.6 |
| 20260509203800 | 46 | 5 | 1.0 | 1.0 | 0.00 | 0.17 | 0.17 | 98 | 1038.6 |
| 20260509203258 | 46 | 29 | 1.0 | 2.0 | 0.00 | 0.17 | 0.17 | 98 | 1038.6 |
| 20260509202754 | 46 | 79 | 2.0 | 2.0 | 0.00 | 0.17 | 0.17 | 98 | 1038.5 |
| 20260509202250 | 46 | 7 | 0.0 | 1.0 | 0.00 | 0.17 | 0.17 | 98 | 1038.6 |
| 20260509201750 | 46 | 14 | 1.0 | 1.0 | 0.00 | 0.17 | 0.17 | 98 | 1038.9 |
| 20260509201247 | 46 | 24 | 0.0 | 1.0 | 0.00 | 0.17 | 0.17 | 98 | 1038.7 |
| 20260509200743 | 46 | 10 | 0.0 | 0.0 | 0.00 | 0.17 | 0.17 | 98 | 1038.7 |
| 20260509200238 | 46 | 354 | 1.0 | 1.0 | 0.00 | 0.17 | 0.17 | 98 | 1038.7 |
| 20260509195734 | 46 | 21 | 1.0 | 2.0 | 0.00 | 0.17 | 0.17 | 98 | 1038.7 |
| 20260509195230 | 46 | 17 | 1.0 | 1.0 | 0.00 | 0.17 | 0.17 | 98 | 1038.8 |
| 20260509194724 | 46 | 11 | 1.0 | 1.0 | 0.00 | 0.17 | 0.17 | 98 | 1038.6 |
| 20260509194221 | 46 | 84 | 2.0 | 2.0 | 0.00 | 0.17 | 0.17 | 98 | 1038.8 |
| 20260509193718 | 46 | 9 | 1.0 | 1.0 | 0.00 | 0.17 | 0.17 | 98 | 1038.7 |
| 20260509193218 | 46 | 13 | 1.0 | 1.0 | 0.00 | 0.17 | 0.17 | 98 | 1038.8 |
| 20260509192714 | 46 | 18 | 1.0 | 1.0 | 0.00 | 0.17 | 0.17 | 98 | 1039.0 |
| 20260509192209 | 46 | 352 | 0.0 | 1.0 | 0.00 | 0.17 | 0.17 | 98 | 1039.0 |
| 20260509191705 | 46 | 352 | 0.0 | 1.0 | 0.00 | 0.17 | 0.17 | 98 | 1038.8 |
| 20260509191201 | 46 | 72 | 2.0 | 2.0 | 0.00 | 0.17 | 0.17 | 98 | 1038.9 |
| 20260509190658 | 46 | 14 | 1.0 | 1.0 | 0.07 | 0.17 | 0.17 | 98 | 1039.0 |
| 20260509190155 | 46 | 92 | 4.0 | 5.0 | 0.07 | 0.17 | 0.17 | 98 | 1039.1 |
| 20260509185653 | 46 | 90 | 3.0 | 3.0 | 0.00 | 0.16 | 0.16 | 98 | 1039.0 |
| 20260509185148 | 46 | 88 | 2.0 | 3.0 | 0.00 | 0.16 | 0.16 | 98 | 1039.1 |
| 20260509184646 | 46 | 87 | 2.0 | 2.0 | 0.05 | 0.16 | 0.16 | 98 | 1039.3 |
| 20260509184143 | 47 | 90 | 2.0 | 2.0 | 0.05 | 0.16 | 0.16 | 98 | 1039.1 |
| 20260509183639 | 47 | 85 | 2.0 | 3.0 | 0.07 | 0.15 | 0.15 | 98 | 1039.3 |
| 20260509183134 | 47 | 75 | 2.0 | 2.0 | 0.07 | 0.15 | 0.15 | 98 | 1039.3 |
| 20260509182630 | 46 | 1 | 2.0 | 2.0 | 0.00 | 0.14 | 0.14 | 97 | 1039.3 |
| 20260509182128 | 46 | 339 | 0.0 | 0.0 | 0.07 | 0.14 | 0.14 | 97 | 1039.4 |
| 20260509181626 | 46 | 354 | 1.0 | 1.0 | 0.07 | 0.14 | 0.14 | 97 | 1039.3 |
| 20260509181123 | 46 | 58 | 0.0 | 1.0 | 0.00 | 0.13 | 0.13 | 98 | 1039.3 |
| 20260509180620 | 47 | 70 | 1.0 | 2.0 | 0.05 | 0.13 | 0.13 | 98 | 1039.3 |
| 20260509180116 | 47 | 33 | 1.0 | 1.0 | 0.12 | 0.13 | 0.13 | 98 | 1039.5 |
| 20260509175611 | 47 | 76 | 2.0 | 2.0 | 0.07 | 0.12 | 0.12 | 98 | 1039.5 |
| 20260509175109 | 47 | 355 | 0.0 | 0.0 | 0.12 | 0.12 | 0.12 | 98 | 1039.5 |
| 20260509174605 | 47 | 3 | 0.0 | 0.0 | 0.05 | 0.11 | 0.11 | 98 | 1039.7 |
| 20260509174100 | 47 | 21 | 0.0 | 0.0 | 0.07 | 0.10 | 0.10 | 97 | 1039.8 |
| 20260509173555 | 47 | 331 | 0.0 | 0.0 | 0.12 | 0.10 | 0.10 | 97 | 1040.0 |
| 20260509173052 | 47 | 353 | 0.0 | 0.0 | 0.05 | 0.09 | 0.09 | 97 | 1039.9 |
| 20260509172549 | 47 | 330 | 0.0 | 0.0 | 0.07 | 0.08 | 0.08 | 96 | 1039.8 |
| 20260509172045 | 46 | 36 | 0.0 | 1.0 | 0.12 | 0.08 | 0.08 | 96 | 1039.9 |
| 20260509171541 | 47 | 313 | 0.0 | 0.0 | 0.05 | 0.07 | 0.07 | 96 | 1040.0 |
| 20260509171037 | 46 | 355 | 0.0 | 0.0 | 0.12 | 0.07 | 0.07 | 95 | 1040.1 |
| 20260509170533 | 47 | 4 | 1.0 | 1.0 | 0.07 | 0.06 | 0.06 | 95 | 1040.0 |
| 20260509170029 | 47 | 311 | 1.0 | 1.0 | 0.05 | 0.05 | 0.05 | 95 | 1040.1 |
| 20260509165528 | 47 | 334 | 0.0 | 0.0 | 0.05 | 0.05 | 0.05 | 95 | 1040.3 |
| 20260509165024 | 47 | 334 | 0.0 | 0.0 | 0.07 | 0.04 | 0.04 | 95 | 1040.3 |
| 20260509164520 | 47 | 335 | 0.0 | 0.0 | 0.07 | 0.04 | 0.04 | 95 | 1040.2 |
| 20260509164015 | 48 | 333 | 0.0 | 0.0 | 0.05 | 0.03 | 0.03 | 95 | 1040.3 |
| 20260509163513 | 47 | 334 | 0.0 | 0.0 | 0.05 | 0.03 | 0.03 | 95 | 1040.7 |
| 20260509163008 | 47 | 336 | 0.0 | 0.0 | 0.07 | 0.02 | 0.02 | 94 | 1040.4 |
| 20260509162506 | 47 | 341 | 0.0 | 0.0 | 0.07 | 0.02 | 0.02 | 94 | 1040.3 |
| 20260509162001 | 47 | 350 | 0.0 | 0.0 | 0.00 | 0.01 | 0.01 | 94 | 1040.3 |
| 20260509161458 | 47 | 350 | 0.0 | 0.0 | 0.00 | 0.01 | 0.01 | 93 | 1040.3 |
| 20260509160953 | 47 | 349 | 0.0 | 0.0 | 0.00 | 0.01 | 0.01 | 93 | 1040.4 |
| 20260509160449 | 47 | 356 | 0.0 | 0.0 | 0.00 | 0.01 | 0.01 | 92 | 1040.7 |
| 20260509155944 | 47 | 328 | 0.0 | 0.0 | 0.00 | 0.01 | 0.01 | 92 | 1040.8 |
| 20260509155441 | 47 | 328 | 0.0 | 0.0 | 0.00 | 0.01 | 0.01 | 92 | 1040.7 |
| 20260509154938 | 47 | 328 | 0.0 | 0.0 | 0.07 | 0.01 | 0.01 | 91 | 1041.0 |
| 20260509154434 | 48 | 344 | 0.0 | 0.0 | 0.07 | 0.01 | 0.01 | 91 | 1040.8 |
| 20260509153932 | 48 | 346 | 0.0 | 0.0 | 0.00 | 0.00 | 0.00 | 90 | 1040.8 |
| 20260509153428 | 48 | 346 | 0.0 | 0.0 | 0.00 | 0.00 | 0.00 | 89 | 1040.9 |
| 20260509152925 | 48 | 350 | 0.0 | 0.0 | 0.00 | 0.00 | 0.00 | 87 | 1041.0 |
| 20260509152421 | 48 | 328 | 0.0 | 0.0 | 0.00 | 0.00 | 0.00 | 87 | 1040.9 |
| 20260509151918 | 48 | 331 | 0.0 | 0.0 | 0.00 | 0.00 | 0.00 | 84 | 1040.9 |
| 20260509151414 | 48 | 8 | 1.0 | 2.0 | 0.00 | 0.00 | 0.00 | 83 | 1040.8 |
| 20260509150913 | 48 | 355 | 0.0 | 1.0 | 0.00 | 0.00 | 0.00 | 82 | 1040.6 |
| 20260509150410 | 49 | 350 | 0.0 | 1.0 | 0.00 | 0.00 | 0.00 | 84 | 1040.3 |
| 20260509145908 | 49 | 354 | 0.0 | 0.0 | 0.00 | 0.00 | 0.00 | 78 | 1040.3 |
| 20260509145407 | 50 | 30 | 1.0 | 2.0 | 0.00 | 0.00 | 0.00 | 74 | 1040.6 |
| 20260509144903 | 50 | 346 | 0.0 | 0.0 | 0.00 | 0.00 | 0.00 | 72 | 1040.3 |
| 20260509144401 | 50 | 294 | 1.0 | 1.0 | 0.00 | 0.00 | 0.00 | 68 | 1040.3 |
| 20260509143857 | 50 | 328 | 0.0 | 0.0 | 0.00 | 0.00 | 0.00 | 66 | 1040.2 |
| 20260509143355 | 50 | 329 | 0.0 | 1.0 | 0.00 | 0.00 | 0.00 | 64 | 1040.0 |
| 20260509142851 | 50 | 330 | 0.0 | 0.0 | 0.00 | 0.00 | 0.00 | 65 | 1040.2 |
| 20260509142348 | 50 | 350 | 0.0 | 0.0 | 0.00 | 0.00 | 0.00 | 64 | 1040.1 |
| 20260509141843 | 50 | 310 | 0.0 | 0.0 | 0.00 | 0.00 | 0.00 | 62 | 1040.2 |
| 20260509141341 | 50 | 315 | 0.0 | 0.0 | 0.00 | 0.00 | 0.00 | 63 | 1040.2 |
| 20260509140837 | 50 | 315 | 0.0 | 0.0 | 0.00 | 0.00 | 0.00 | 64 | 1040.2 |
| 20260509140334 | 50 | 323 | 0.0 | 0.0 | 0.00 | 0.00 | 0.00 | 64 | 1040.1 |
| 20260509135832 | 50 | 336 | 0.0 | 0.0 | 0.00 | 0.00 | 0.00 | 64 | 1040.2 |
| 20260509135329 | 50 | 329 | 0.0 | 0.0 | 0.00 | 0.00 | 0.00 | 64 | 1040.4 |
| 20260509134826 | 49 | 345 | 0.0 | 0.0 | 0.00 | 0.00 | 0.00 | 65 | 1040.2 |
| 20260509134323 | 49 | 338 | 0.0 | 0.0 | 0.00 | 0.00 | 0.00 | 64 | 1040.2 |
| 20260509133820 | 50 | 337 | 0.0 | 0.0 | 0.00 | 0.00 | 0.00 | 65 | 1040.3 |
| 20260509133317 | 49 | 325 | 0.0 | 0.0 | 0.00 | 0.00 | 0.00 | 65 | 1040.2 |
| 20260509132816 | 49 | 324 | 0.0 | 0.0 | 0.00 | 0.00 | 0.00 | 65 | 1040.2 |
| 20260509132314 | 49 | 319 | 0.0 | 0.0 | 0.00 | 0.00 | 0.00 | 65 | 1040.3 |
| 20260509131810 | 48 | 332 | 0.0 | 0.0 | 0.00 | 0.00 | 0.00 | 67 | 1040.3 |
| 20260509131307 | 48 | 303 | 1.0 | 2.0 | 0.00 | 0.00 | 0.00 | 67 | 1040.3 |
| 20260509130803 | 47 | 327 | 0.0 | 0.0 | 0.00 | 0.00 | 0.00 | 68 | 1040.1 |
| 20260509130259 | 46 | 315 | 1.0 | 1.0 | 0.00 | 0.00 | 0.00 | 71 | 1040.2 |
| 20260509125756 | 46 | 339 | 0.0 | 0.0 | 0.00 | 0.00 | 0.00 | 72 | 1040.6 |
| 20260509125253 | 45 | 326 | 0.0 | 0.0 | 0.00 | 0.00 | 0.00 | 75 | 1040.7 |
| 20260509124749 | 44 | 353 | 0.0 | 0.0 | 0.00 | 0.00 | 0.00 | 76 | 1040.7 |
| 20260509124245 | 43 | 327 | 0.0 | 0.0 | 0.00 | 0.00 | 0.00 | 77 | 1040.8 |
| 20260509123744 | 43 | 330 | 0.0 | 0.0 | 0.00 | 0.00 | 0.00 | 78 | 1040.7 |
| 20260509123241 | 42 | 330 | 0.0 | 0.0 | 0.00 | 0.00 | 0.00 | 79 | 1040.7 |
| 20260509122736 | 42 | 328 | 0.0 | 0.0 | 0.00 | 0.00 | 0.00 | 79 | 1040.9 |
| 20260509122233 | 41 | 339 | 0.0 | 0.0 | 0.00 | 0.00 | 0.00 | 80 | 1041.0 |
| 20260509121730 | 41 | 329 | 0.0 | 0.0 | 0.00 | 0.00 | 0.00 | 82 | 1041.1 |
| 20260509121228 | 40 | 330 | 0.0 | 0.0 | 0.00 | 0.00 | 0.00 | 82 | 1041.0 |
| 20260509120726 | 40 | 329 | 0.0 | 0.0 | 0.00 | 0.00 | 0.00 | 83 | 1041.0 |
| 20260509120223 | 40 | 330 | 0.0 | 0.0 | 0.00 | 0.00 | 0.00 | 84 | 1041.0 |
| 20260509115721 | 39 | 329 | 0.0 | 0.0 | 0.00 | 0.00 | 0.00 | 85 | 1041.1 |
| 20260509115218 | 38 | 347 | 0.0 | 0.0 | 0.00 | 0.00 | 0.00 | 86 | 1041.2 |
| 20260509114717 | 38 | 347 | 0.0 | 0.0 | 0.00 | 0.00 | 0.00 | 88 | 1041.2 |
| 20260509114215 | 37 | 354 | 0.0 | 0.0 | 0.00 | 0.00 | 0.00 | 88 | 1041.4 |
| 20260509113713 | 37 | 345 | 0.0 | 0.0 | 0.00 | 0.00 | 0.00 | 90 | 1041.3 |
| 20260509113210 | 36 | 329 | 0.0 | 0.0 | 0.00 | 0.00 | 0.00 | 91 | 1041.4 |
| 20260509112707 | 35 | 328 | 0.0 | 0.0 | 0.00 | 0.00 | 0.00 | 92 | 1041.4 |
| 20260509112203 | 35 | 349 | 0.0 | 0.0 | 0.00 | 0.00 | 0.00 | 93 | 1041.4 |
| 20260509111701 | 35 | 349 | 0.0 | 0.0 | 0.00 | 0.00 | 0.00 | 94 | 1041.2 |
| 20260509111157 | 35 | 347 | 0.0 | 0.0 | 0.00 | 0.00 | 0.00 | 94 | 1041.5 |
| 20260509110655 | 34 | 349 | 0.0 | 0.0 | 0.00 | 0.00 | 0.00 | 95 | 1041.2 |
| 20260509110151 | 33 | 334 | 0.0 | 0.0 | 0.00 | 0.00 | 0.00 | 96 | 1041.4 |
| 20260509105649 | 33 | 355 | 0.0 | 0.0 | 0.00 | 0.00 | 0.00 | 96 | 1041.5 |
| 20260509105147 | 33 | 355 | 0.0 | 0.0 | 0.00 | 0.00 | 0.00 | 96 | 1041.4 |
| 20260509104644 | 33 | 355 | 0.0 | 0.0 | 0.00 | 0.00 | 0.00 | 96 | 1041.2 |
| 20260509104140 | 32 | 355 | 0.0 | 0.0 | 0.00 | 0.00 | 0.00 | 96 | 1041.2 |
| 20260509103638 | 32 | 355 | 0.0 | 0.0 | 0.00 | 0.00 | 0.00 | 96 | 1041.4 |
| 20260509103136 | 32 | 355 | 0.0 | 0.0 | 0.00 | 0.00 | 0.00 | 96 | 1041.3 |
| 20260509102633 | 32 | 354 | 0.0 | 0.0 | 0.00 | 0.00 | 0.00 | 96 | 1041.4 |
| 20260509102131 | 32 | 351 | 0.0 | 0.0 | 0.00 | 0.00 | 0.00 | 96 | 1041.2 |
| 20260509101627 | 32 | 351 | 0.0 | 0.0 | 0.00 | 0.00 | 0.00 | 96 | 1041.2 |
| 20260509101123 | 31 | 351 | 0.0 | 0.0 | 0.00 | 0.00 | 0.00 | 96 | 1041.0 |
| 20260509100621 | 31 | 351 | 0.0 | 0.0 | 0.00 | 0.00 | 0.00 | 96 | 1041.0 |
| 20260509100118 | 31 | 351 | 0.0 | 0.0 | 0.00 | 0.00 | 0.00 | 95 | 1040.9 |
| 20260509095614 | 31 | 351 | 0.0 | 0.0 | 0.00 | 0.00 | 0.00 | 95 | 1040.8 |
| 20260509095112 | 31 | 351 | 0.0 | 0.0 | 0.00 | 0.00 | 0.00 | 95 | 1040.3 |
| 20260509094608 | 31 | 351 | 0.0 | 0.0 | 0.00 | 0.00 | 0.00 | 95 | 1040.4 |
| 20260509094105 | 31 | 351 | 0.0 | 0.0 | 0.00 | 0.00 | 0.00 | 95 | 1040.4 |
| 20260509093604 | 32 | 352 | 0.0 | 0.0 | 0.00 | 0.00 | 0.00 | 95 | 1040.2 |
| 20260509093100 | 32 | 351 | 0.0 | 0.0 | 0.00 | 0.00 | 0.00 | 95 | 1040.3 |
| 20260509092558 | 32 | 345 | 0.0 | 0.0 | 0.00 | 0.00 | 0.00 | 95 | 1040.3 |
| 20260509092057 | 32 | 345 | 0.0 | 0.0 | 0.00 | 0.00 | 0.00 | 95 | 1040.3 |
| 20260509091554 | 32 | 343 | 0.0 | 0.0 | 0.00 | 0.00 | 0.00 | 95 | 1040.2 |
| 20260509091050 | 32 | 347 | 0.0 | 0.0 | 0.00 | 0.00 | 0.00 | 95 | 1040.2 |
| 20260509090548 | 32 | 331 | 0.0 | 0.0 | 0.00 | 0.00 | 0.00 | 95 | 1040.1 |
| 20260509090046 | 31 | 331 | 0.0 | 0.0 | 0.00 | 0.00 | 0.00 | 95 | 1040.2 |
| 20260509085542 | 32 | 331 | 0.0 | 0.0 | 0.00 | 0.00 | 0.00 | 94 | 1040.0 |
| 20260509085038 | 32 | 334 | 0.0 | 0.0 | 0.00 | 0.00 | 0.00 | 95 | 1039.8 |
| 20260509084536 | 32 | 346 | 0.0 | 0.0 | 0.00 | 0.00 | 0.00 | 95 | 1039.8 |
| 20260509084033 | 32 | 343 | 0.0 | 0.0 | 0.00 | 0.00 | 0.00 | 95 | 1039.8 |
| 20260509083530 | 32 | 328 | 0.0 | 0.0 | 0.00 | 0.00 | 0.00 | 94 | 1039.9 |
| 20260509083026 | 32 | 328 | 0.0 | 0.0 | 0.00 | 0.00 | 0.00 | 94 | 1039.7 |
| 20260509082524 | 32 | 328 | 0.0 | 0.0 | 0.00 | 0.00 | 0.00 | 94 | 1039.6 |
| 20260509082021 | 32 | 329 | 0.0 | 0.0 | 0.00 | 0.00 | 0.00 | 94 | 1039.4 |
| 20260509081518 | 32 | 329 | 0.0 | 0.0 | 0.00 | 0.00 | 0.00 | 93 | 1039.7 |
| 20260509081015 | 33 | 329 | 0.0 | 0.0 | 0.00 | 0.00 | 0.00 | 93 | 1039.7 |
| 20260509080513 | 33 | 330 | 0.0 | 0.0 | 0.00 | 0.00 | 0.00 | 93 | 1039.9 |
| 20260509080011 | 33 | 331 | 0.0 | 0.0 | 0.00 | 0.00 | 0.00 | 93 | 1039.8 |
| 20260509075508 | 33 | 331 | 0.0 | 0.0 | 0.00 | 0.00 | 0.00 | 93 | 1039.9 |
| 20260509075006 | 33 | 331 | 0.0 | 0.0 | 0.00 | 0.00 | 0.00 | 93 | 1040.0 |
| 20260509074503 | 33 | 331 | 0.0 | 0.0 | 0.00 | 0.00 | 0.00 | 92 | 1040.0 |
| 20260509073959 | 33 | 331 | 0.0 | 0.0 | 0.00 | 0.00 | 0.00 | 92 | 1039.7 |
| 20260509073455 | 33 | 331 | 0.0 | 0.0 | 0.00 | 0.00 | 0.00 | 92 | 1039.9 |
| 20260509072952 | 33 | 331 | 0.0 | 0.0 | 0.00 | 0.00 | 0.00 | 92 | 1040.1 |
| 20260509072449 | 33 | 331 | 0.0 | 0.0 | 0.00 | 0.00 | 0.00 | 92 | 1040.0 |
| 20260509071946 | 33 | 331 | 0.0 | 0.0 | 0.00 | 0.00 | 0.00 | 92 | 1039.9 |
| 20260509071442 | 33 | 331 | 0.0 | 0.0 | 0.00 | 0.00 | 0.00 | 91 | 1040.0 |
| 20260509070940 | 34 | 331 | 0.0 | 0.0 | 0.00 | 0.00 | 0.00 | 91 | 1040.1 |
| 20260509070437 | 34 | 331 | 0.0 | 0.0 | 0.00 | 0.00 | 0.00 | 91 | 1040.1 |
| 20260509065932 | 34 | 331 | 1.0 | 1.0 | 0.00 | 0.00 | 0.00 | 92 | 1040.0 |
| 20260509065428 | 34 | 331 | 0.0 | 0.0 | 0.00 | 0.00 | 0.00 | 91 | 1040.2 |
| 20260509064925 | 34 | 331 | 0.0 | 0.0 | 0.00 | 0.00 | 0.00 | 90 | 1040.1 |
| 20260509064422 | 34 | 331 | 0.0 | 0.0 | 0.00 | 0.00 | 0.00 | 90 | 1040.0 |
| 20260509063921 | 35 | 331 | 0.0 | 0.0 | 0.00 | 0.00 | 0.00 | 89 | 1040.1 |
| 20260509063416 | 35 | 331 | 0.0 | 0.0 | 0.00 | 0.00 | 0.00 | 89 | 1040.0 |
| 20260509062913 | 35 | 331 | 0.0 | 0.0 | 0.00 | 0.00 | 0.00 | 89 | 1040.1 |
| 20260509062410 | 35 | 331 | 0.0 | 0.0 | 0.00 | 0.00 | 0.00 | 89 | 1039.9 |
| 20260509061907 | 35 | 331 | 0.0 | 0.0 | 0.00 | 0.00 | 0.00 | 88 | 1040.0 |
| 20260509061405 | 35 | 331 | 0.0 | 0.0 | 0.00 | 0.00 | 0.00 | 88 | 1040.0 |
| 20260509060902 | 35 | 331 | 0.0 | 0.0 | 0.00 | 0.00 | 0.00 | 87 | 1040.2 |
| 20260509060359 | 35 | 331 | 0.0 | 0.0 | 0.00 | 0.00 | 0.00 | 87 | 1040.2 |
| 20260509055854 | 36 | 331 | 0.0 | 0.0 | 0.00 | 0.00 | 0.00 | 87 | 1040.1 |
| 20260509055350 | 36 | 331 | 0.0 | 0.0 | 0.00 | 0.00 | 0.00 | 86 | 1040.1 |
| 20260509054847 | 36 | 330 | 0.0 | 0.0 | 0.00 | 0.00 | 0.00 | 86 | 1040.1 |
| 20260509054344 | 36 | 331 | 0.0 | 0.0 | 0.00 | 0.00 | 0.00 | 86 | 1040.1 |
| 20260509053842 | 37 | 331 | 0.0 | 0.0 | 0.00 | 0.00 | 0.00 | 86 | 1040.1 |
| 20260509053339 | 37 | 331 | 0.0 | 0.0 | 0.00 | 0.00 | 0.00 | 85 | 1040.1 |
| 20260509052837 | 37 | 331 | 0.0 | 0.0 | 0.00 | 0.00 | 0.00 | 84 | 1040.1 |
| 20260509052334 | 37 | 331 | 0.0 | 0.0 | 0.00 | 0.00 | 0.00 | 84 | 1039.8 |
| 20260509051832 | 37 | 331 | 0.0 | 0.0 | 0.00 | 0.00 | 0.00 | 84 | 1040.0 |
| 20260509051330 | 37 | 331 | 0.0 | 0.0 | 0.00 | 0.00 | 0.00 | 84 | 1039.8 |
| 20260509050826 | 38 | 331 | 0.0 | 0.0 | 0.00 | 0.00 | 0.00 | 83 | 1039.9 |
| 20260509050323 | 38 | 331 | 0.0 | 0.0 | 0.00 | 0.00 | 0.00 | 83 | 1039.9 |
| 20260509045820 | 38 | 331 | 0.0 | 0.0 | 0.00 | 0.00 | 0.00 | 83 | 1039.8 |
| 20260509045317 | 38 | 331 | 0.0 | 0.0 | 0.00 | 0.00 | 0.00 | 83 | 1039.9 |
| 20260509044814 | 38 | 331 | 0.0 | 0.0 | 0.00 | 0.00 | 0.00 | 82 | 1039.8 |
| 20260509044312 | 38 | 331 | 0.0 | 0.0 | 0.00 | 0.00 | 0.00 | 82 | 1039.6 |
| 20260509043808 | 38 | 331 | 0.0 | 0.0 | 0.00 | 0.00 | 0.00 | 81 | 1039.9 |
| 20260509043304 | 39 | 331 | 0.0 | 0.0 | 0.00 | 0.00 | 0.00 | 81 | 1039.8 |
| 20260509042800 | 39 | 331 | 0.0 | 0.0 | 0.00 | 0.00 | 0.00 | 81 | 1039.8 |
| 20260509042256 | 39 | 331 | 0.0 | 0.0 | 0.00 | 0.00 | 0.00 | 80 | 1039.7 |
| 20260509041753 | 39 | 331 | 0.0 | 0.0 | 0.00 | 0.00 | 0.00 | 80 | 1039.7 |
| 20260509041250 | 40 | 331 | 0.0 | 0.0 | 0.00 | 0.00 | 0.00 | 80 | 1039.9 |
| 20260509040749 | 40 | 331 | 0.0 | 0.0 | 0.00 | 0.00 | 0.00 | 80 | 1039.8 |
| 20260509040246 | 40 | 331 | 0.0 | 0.0 | 0.00 | 0.00 | 0.00 | 80 | 1039.8 |
| 20260509035742 | 40 | 331 | 0.0 | 0.0 | 0.00 | 0.00 | 0.00 | 78 | 1039.7 |
| 20260509035239 | 40 | 331 | 0.0 | 0.0 | 0.00 | 0.00 | 0.00 | 78 | 1039.9 |
| 20260509034736 | 41 | 331 | 0.0 | 0.0 | 0.00 | 0.00 | 0.00 | 77 | 1039.7 |
| 20260509034234 | 41 | 331 | 0.0 | 0.0 | 0.00 | 0.00 | 0.00 | 76 | 1039.7 |
| 20260509033730 | 41 | 331 | 0.0 | 0.0 | 0.00 | 0.00 | 0.00 | 75 | 1039.6 |
| 20260509033228 | 41 | 331 | 0.0 | 0.0 | 0.00 | 0.00 | 0.00 | 75 | 1039.8 |
| 20260509032725 | 41 | 331 | 0.0 | 0.0 | 0.00 | 0.00 | 0.00 | 74 | 1039.7 |
| 20260509032221 | 41 | 331 | 0.0 | 0.0 | 0.00 | 0.00 | 0.00 | 74 | 1039.5 |
| 20260509031719 | 41 | 331 | 0.0 | 0.0 | 0.00 | 0.00 | 0.00 | 74 | 1039.5 |
| 20260509031216 | 42 | 331 | 0.0 | 0.0 | 0.00 | 0.00 | 0.00 | 73 | 1039.7 |
| 20260509030714 | 42 | 331 | 0.0 | 0.0 | 0.00 | 0.00 | 0.00 | 72 | 1039.6 |
| 20260509030211 | 42 | 331 | 0.0 | 0.0 | 0.00 | 0.00 | 0.00 | 72 | 1039.5 |
| 20260509025708 | 42 | 331 | 0.0 | 0.0 | 0.00 | 0.00 | 0.00 | 71 | 1039.5 |
| 20260509025204 | 43 | 331 | 0.0 | 0.0 | 0.00 | 0.00 | 0.00 | 71 | 1039.4 |
| 20260509024659 | 43 | 331 | 0.0 | 0.0 | 0.00 | 0.00 | 0.00 | 69 | 1039.4 |
| 20260509024155 | 43 | 331 | 0.0 | 0.0 | 0.00 | 0.00 | 0.00 | 69 | 1039.5 |
| 20260509023653 | 44 | 331 | 0.0 | 0.0 | 0.00 | 0.00 | 0.00 | 68 | 1039.3 |
| 20260509023150 | 44 | 331 | 0.0 | 0.0 | 0.00 | 0.00 | 0.00 | 67 | 1039.5 |
| 20260509022646 | 44 | 321 | 0.0 | 0.0 | 0.00 | 0.00 | 0.00 | 66 | 1039.4 |
| 20260509022144 | 45 | 331 | 0.0 | 0.0 | 0.00 | 0.00 | 0.00 | 67 | 1039.3 |
| 20260509021640 | 45 | 331 | 0.0 | 0.0 | 0.00 | 0.00 | 0.00 | 66 | 1039.4 |
| 20260509021138 | 45 | 331 | 0.0 | 0.0 | 0.00 | 0.00 | 0.00 | 65 | 1039.1 |
| 20260509020636 | 45 | 331 | 0.0 | 0.0 | 0.00 | 0.00 | 0.00 | 65 | 1039.2 |
| 20260509020133 | 46 | 331 | 0.0 | 0.0 | 0.00 | 0.00 | 0.00 | 64 | 1039.2 |
| 20260509015632 | 46 | 331 | 0.0 | 0.0 | 0.00 | 0.00 | 0.00 | 62 | 1039.2 |
| 20260509015129 | 46 | 330 | 0.0 | 0.0 | 0.00 | 0.00 | 0.00 | 62 | 1039.1 |
| 20260509014625 | 46 | 338 | 0.0 | 0.0 | 0.00 | 0.00 | 0.00 | 61 | 1039.1 |
| 20260509014121 | 47 | 338 | 0.0 | 0.0 | 0.00 | 0.00 | 0.00 | 60 | 1039.0 |
| 20260509013619 | 47 | 322 | 0.0 | 0.0 | 0.00 | 0.00 | 0.00 | 59 | 1038.9 |
| 20260509013114 | 48 | 322 | 0.0 | 0.0 | 0.00 | 0.00 | 0.00 | 58 | 1038.9 |
| 20260509012611 | 48 | 321 | 0.0 | 0.0 | 0.00 | 0.00 | 0.00 | 57 | 1038.8 |
| 20260509012108 | 48 | 285 | 2.0 | 2.0 | 0.00 | 0.00 | 0.00 | 56 | 1038.8 |
| 20260509011606 | 48 | 321 | 0.0 | 0.0 | 0.00 | 0.00 | 0.00 | 55 | 1038.7 |
| 20260509011102 | 48 | 321 | 0.0 | 0.0 | 0.00 | 0.00 | 0.00 | 55 | 1038.6 |
| 20260509010600 | 49 | 321 | 0.0 | 0.0 | 0.00 | 0.00 | 0.00 | 54 | 1038.6 |
| 20260509010057 | 49 | 321 | 0.0 | 0.0 | 0.00 | 0.00 | 0.00 | 53 | 1038.4 |
| 20260509005555 | 49 | 321 | 0.0 | 0.0 | 0.00 | 0.00 | 0.00 | 52 | 1038.3 |
| 20260509005050 | 49 | 322 | 0.0 | 0.0 | 0.00 | 0.00 | 0.00 | 51 | 1038.2 |
| 20260509004547 | 50 | 321 | 0.0 | 1.0 | 0.00 | 0.00 | 0.00 | 50 | 1038.2 |
| 20260509004044 | 50 | 322 | 1.0 | 1.0 | 0.00 | 0.00 | 0.00 | 48 | 1038.2 |
| 20260509003542 | 50 | 326 | 0.0 | 0.0 | 0.00 | 0.00 | 0.00 | 46 | 1038.3 |
| 20260509003039 | 49 | 342 | 0.0 | 0.0 | 0.00 | 0.00 | 0.00 | 48 | 1038.0 |
| 20260509002537 | 50 | 344 | 0.0 | 0.0 | 0.00 | 0.00 | 0.00 | 46 | 1038.0 |
| 20260509002034 | 50 | 344 | 0.0 | 0.0 | 0.00 | 0.00 | 0.00 | 45 | 1037.9 |
| 20260509001531 | 50 | 354 | 0.0 | 0.0 | 0.00 | 0.00 | 0.00 | 46 | 1037.9 |
| 20260509001027 | 50 | 342 | 0.0 | 0.0 | 0.00 | 0.00 | 0.00 | 45 | 1037.8 |
| 20260509000526 | 50 | 341 | 0.0 | 0.0 | 0.00 | 0.00 | 0.00 | 45 | 1037.6 |
| 20260509000021 | 50 | 341 | 0.0 | 0.0 | 0.00 | 0.00 | 0.00 | 46 | 1037.7 |